Find Starlink 31137

NORAD ID: 58686 Int'l Des: 2023-211 Owner: SPXS Country: US Constellation: starlink operational
LEOCIRCULAR

現在のビュー

3D地球を読み込み中...

About Starlink 31137

Starlink 31137 (NORAD 58686) is a starlink constellation satellite (v2 mini) launched Dec 29, 2023 by SPXS of US. It operates in LEO, CIRCULAR orbit with a mass of 730.00 kg.

Starlink 31137について

説明を読み込み中...

次回通過

Passes for default location (London). Set your location on the main map for personalized predictions.

高度履歴

Loading altitude history...

軌道要素

1 58686U 23211V 26177.49433126 .00014109 00000-0 52117-3 0 9991
2 58686 43.0024 190.9155 0001464 291.1942 68.8754 15.27585031139100
Epoch: Jun 26, 2026 • Age: 19 hours

現在のステータス

高度 484.5 km
速度 7.62 km/s
衛星直下点 -12.37°S, 158.35°E
打ち上げ日 Dec 29, 2023
運用期間 2.4 years
タイプ internet

技術仕様

分類 Payload
質量 730.00 kg
乾燥質量 700.00 kg
総質量 730.00 kg
長さ 0.30 m
直径 4.10 m
スパン 29.00 m
形状 Box + pan
製造者 SPXS
バスタイプ Starlink V2M
フェーズステータス In Orbit
所有者/国 SPXS/US

Most Searched